Weather History for YBCS - October, 2011

Change the Weather History Date:

Monday, October 31, 2011

  Actual Average Record
Temperature  
Mean Temperature 79 °F -  
Max Temperature 86 °F 87 °F 89 °F (2012)
Min Temperature 72 °F 72 °F 66 °F (1996)
Cooling Degree Days 14    
Growing Degree Days 29 (Base 50)    
Moisture  
Dew Point 66 °F    
Average Humidity 65    
Maximum Humidity 83    
Minimum Humidity 36    
Precipitation  
Precipitation 0.00 in 0.13 in - ()
Sea Level Pressure  
Sea Level Pressure 29.84 in    
Wind  
Wind Speed 9 mph ()    
Max Wind Speed 17 mph    
Max Gust Speed -    
Visibility 7.6 miles    
Events      
Averages and records for this station are not official NWS values.
T = Trace of Precipitation, MM = Missing Value Source: Averaged Metar Reports

Daily Weather History Graph

Daily Weather History Graph

Search for Another Location

Airport or City:

Trip Planner

Search our weather history database for the weather conditions in past years. The results will help you decide how hot, cold, wet, or windy it might be!

Date:

Astronomy

Oct. 31, 2011 Rise Set
Actual Time 5:39 AM AEST 6:21 PM AEST
Civil Twilight 5:17 AM AEST 6:44 PM AEST
Nautical Twilight 4:51 AM AEST 7:10 PM AEST
Astronomical Twilight 4:24 AM AEST 7:37 PM AEST
Moon 9:30 AM AEST (10/31) 10:54 PM AEST (10/31)
Length of Visible Light 13h 26m
Length of Day
12h 41m
Waxing Crescent, 24% of the Moon is Illuminated
Oct 31
Waxing Crescent
Nov 3
First Quarter
Nov 11
Full
Nov 19
Last Quarter
Nov 25
New

Hourly Weather History & Observations

Time (AEST) Temp. Heat Index Dew Point Humidity Pressure Visibility Wind Dir Wind Speed Gust Speed Precip Events Conditions
12:00 AM 74 °F - 68 °F 76% 29.86 in 19 mi SSE 6.9 mph - -   Partly Cloudy
12:00 AM 75.2 °F - 68.0 °F 78% 29.86 in 6.2 mi SSE 6.9 mph - N/A   Partly Cloudy
12:30 AM 75.2 °F - 68.0 °F 78% 29.83 in 6.2 mi South 6.9 mph - N/A   Partly Cloudy
1:00 AM 75 °F - 67 °F 71% 29.85 in - SSW 5.8 mph - -  
1:00 AM 75.2 °F - 68.0 °F 78% 29.83 in 6.2 mi SSW 5.8 mph - N/A   Partly Cloudy
1:30 AM 75.2 °F - 68.0 °F 78% 29.83 in 6.2 mi ESE 6.9 mph - N/A   Scattered Clouds
2:00 AM 73.4 °F - 68.0 °F 83% 29.83 in 6.2 mi SSE 5.8 mph - N/A   Scattered Clouds
2:30 AM 75.2 °F - 68.0 °F 78% 29.83 in 6.2 mi SSE 6.9 mph - N/A   Scattered Clouds
3:00 AM 73 °F - 68 °F 79% 29.82 in 19 mi SE 8.1 mph - -   Partly Cloudy
3:00 AM 73.4 °F - 68.0 °F 83% 29.80 in 6.2 mi SE 8.1 mph - N/A   Scattered Clouds
3:30 AM 73.4 °F - 68.0 °F 83% 29.80 in 6.2 mi SSE 6.9 mph - N/A   Scattered Clouds
4:00 AM 73 °F - 68 °F 79% 29.83 in - SE 5.8 mph - -  
4:00 AM 73.4 °F - 68.0 °F 83% 29.83 in 6.2 mi SE 5.8 mph - N/A   Partly Cloudy
4:30 AM 73.4 °F - 68.0 °F 83% 29.83 in 6.2 mi South 8.1 mph - N/A   Partly Cloudy
5:00 AM 73.4 °F - 68.0 °F 83% 29.83 in 6.2 mi South 8.1 mph - N/A   Partly Cloudy
5:30 AM 73.4 °F - 68.0 °F 83% 29.86 in 6.2 mi South 6.9 mph - N/A   Scattered Clouds
6:00 AM 74 °F - 68 °F 76% 29.86 in 19 mi SSE 5.8 mph - -   Partly Cloudy
6:00 AM 75.2 °F - 68.0 °F 78% 29.86 in 6.2 mi SSE 5.8 mph - N/A   Scattered Clouds
6:30 AM 75.2 °F - 68.0 °F 78% 29.86 in 6.2 mi SSE 8.1 mph - N/A   Scattered Clouds
7:00 AM 76 °F - 68 °F 70% 29.88 in - SSE 8.1 mph - -  
7:00 AM 75.2 °F - 68.0 °F 78% 29.86 in 6.2 mi SSE 8.1 mph - N/A   Scattered Clouds
7:30 AM 77.0 °F - 68.0 °F 74% 29.89 in 6.2 mi SSE 10.4 mph - N/A   Scattered Clouds
8:00 AM 78.8 °F - 66.2 °F 65% 29.89 in 6.2 mi SSE 11.5 mph - N/A   Partly Cloudy
8:30 AM 78.8 °F - 64.4 °F 61% 29.89 in 6.2 mi SE 15.0 mph - N/A   Partly Cloudy
9:00 AM 82 °F - 64 °F 44% 29.88 in 19 mi SE 12.7 mph - -   Partly Cloudy
9:00 AM 82.4 °F 83.9 °F 64.4 °F 54% 29.89 in 6.2 mi SE 12.7 mph - N/A   Scattered Clouds
9:30 AM 84.2 °F 85.6 °F 64.4 °F 51% 29.89 in 6.2 mi SSE 15.0 mph - N/A   Scattered Clouds
10:00 AM 83 °F - 63 °F 41% 29.89 in - SSE 16.1 mph - -  
10:00 AM 82.4 °F 83.4 °F 62.6 °F 51% 29.86 in 6.2 mi SSE 16.1 mph - N/A   Partly Cloudy
10:30 AM 82.4 °F 83.9 °F 64.4 °F 54% 29.86 in 6.2 mi ESE 16.1 mph - N/A   Scattered Clouds
11:00 AM 84.2 °F 85.6 °F 64.4 °F 51% 29.86 in 6.2 mi ESE 16.1 mph - N/A   Partly Cloudy
11:30 AM 84.2 °F 85.0 °F 62.6 °F 48% 29.86 in 6.2 mi SE 16.1 mph - N/A   Scattered Clouds
12:00 PM 85 °F - 62 °F 36% 29.85 in 19 mi ESE 17.3 mph - -   Partly Cloudy
12:00 PM 84.2 °F 85.0 °F 62.6 °F 48% 29.83 in 6.2 mi ESE 17.3 mph - N/A   Partly Cloudy
12:30 PM 86.0 °F 86.6 °F 62.6 °F 45% 29.83 in 6.2 mi SE 16.1 mph - N/A   Partly Cloudy
1:00 PM 84 °F - 64 °F 41% 29.84 in - SE 15.0 mph - -  
1:00 PM 84.2 °F 85.6 °F 64.4 °F 51% 29.83 in 6.2 mi SE 15.0 mph - N/A   Partly Cloudy
1:30 PM 84.2 °F 85.6 °F 64.4 °F 51% 29.80 in 6.2 mi ESE 15.0 mph - N/A   Partly Cloudy
2:00 PM 86.0 °F 86.6 °F 62.6 °F 45% 29.80 in 6.2 mi ESE 16.1 mph - N/A   Partly Cloudy
2:30 PM 86.0 °F 87.3 °F 64.4 °F 48% 29.80 in 6.2 mi ESE 16.1 mph - N/A   Partly Cloudy
3:00 PM 84 °F - 63 °F 39% 29.80 in 19 mi ESE 15.0 mph - -   Partly Cloudy
3:00 PM 84.2 °F 85.0 °F 62.6 °F 48% 29.80 in 6.2 mi ESE 15.0 mph - N/A   Partly Cloudy
3:30 PM 84.2 °F 85.0 °F 62.6 °F 48% 29.77 in 6.2 mi ESE 12.7 mph - N/A   Partly Cloudy
4:00 PM 83 °F - 64 °F 42% 29.79 in - SE 11.5 mph - -  
4:00 PM 82.4 °F 83.9 °F 64.4 °F 54% 29.77 in 6.2 mi SE 11.5 mph - N/A   Partly Cloudy
4:30 PM 82.4 °F 83.9 °F 64.4 °F 54% 29.77 in 6.2 mi East 10.4 mph - N/A   Partly Cloudy
5:00 PM 82.4 °F 84.6 °F 66.2 °F 58% 29.77 in 6.2 mi East 10.4 mph - N/A   Partly Cloudy
5:30 PM 80.6 °F 82.7 °F 66.2 °F 61% 29.77 in 6.2 mi East 10.4 mph - N/A   Partly Cloudy
6:00 PM 79 °F - 66 °F 55% 29.81 in - SE 8.1 mph - -  
6:00 PM 78.8 °F - 66.2 °F 65% 29.80 in 6.2 mi SE 8.1 mph - N/A   Partly Cloudy
6:30 PM 78.8 °F - 66.2 °F 65% 29.80 in 6.2 mi SE 12.7 mph - N/A   Partly Cloudy
7:00 PM 77 °F - 66 °F 61% 29.84 in - SSE 12.7 mph - -  
7:00 PM 77.0 °F - 66.2 °F 69% 29.83 in 6.2 mi SSE 12.7 mph - N/A   Partly Cloudy
7:30 PM 77.0 °F - 66.2 °F 69% 29.83 in 6.2 mi SSE 10.4 mph - N/A   Partly Cloudy
8:00 PM 77.0 °F - 68.0 °F 74% 29.83 in 6.2 mi SE 9.2 mph - N/A   Partly Cloudy
8:30 PM 75.2 °F - 68.0 °F 78% 29.86 in 6.2 mi SSE 5.8 mph - N/A   Partly Cloudy
9:00 PM 75.2 °F - 68.0 °F 78% 29.86 in 6.2 mi SSE 5.8 mph - N/A   Partly Cloudy
9:30 PM 75.2 °F - 68.0 °F 78% 29.86 in 6.2 mi SSE 8.1 mph - N/A   Partly Cloudy
10:00 PM 75 °F - 67 °F 69% 29.89 in - SSE 9.2 mph - -  
10:00 PM 75.2 °F - 66.2 °F 73% 29.89 in 6.2 mi SSE 9.2 mph - N/A   Partly Cloudy
10:30 PM 75.2 °F - 66.2 °F 73% 29.89 in 6.2 mi South 6.9 mph - N/A   Partly Cloudy
11:00 PM 75.2 °F - 66.2 °F 73% 29.89 in 6.2 mi South 6.9 mph - N/A   Partly Cloudy
11:30 PM 75.2 °F - 66.2 °F 73% 29.89 in 6.2 mi South 6.9 mph - N/A   Partly Cloudy